EW7507 Weather Reports


Display with metric or nautical units.
time (UTC)temp
F
wind
direction
speed
MPH
gust
MPH
rain 1hr
in
rain 24hr
in
rain mn
in
humidity
%
barometer
mb
20260906143137 53 199 2.0 3.0 0.03 0.34 0.13 94 978.6
20260906142637 53 200 0.0 3.0 0.02 0.33 0.12 94 979.0
20260906142137 53 200 1.0 3.0 0.02 0.33 0.12 94 979.0
20260906141636 53 200 0.0 2.0 0.01 0.32 0.11 94 979.0
20260906141138 53 200 1.0 2.0 0.01 0.32 0.11 94 978.7
20260906140636 53 200 1.0 2.0 0.01 0.32 0.11 94 978.5
20260906140138 53 200 1.0 3.0 0.00 0.31 0.10 94 978.7
20260906135635 53 200 1.0 4.0 0.00 0.31 0.10 94 978.7
20260906135136 53 199 2.0 5.0 0.00 0.31 0.10 94 979.0
20260906134635 53 200 1.0 5.0 0.00 0.31 0.10 94 979.2
20260906134136 53 196 2.0 5.0 0.00 0.31 0.10 94 979.1
20260906133635 53 195 2.0 9.0 0.00 0.31 0.10 94 979.1
20260906133137 53 193 4.0 9.0 0.00 0.31 0.10 94 979.0
20260906132636 53 196 3.0 6.0 0.00 0.31 0.10 94 979.2
20260906132135 53 204 2.0 7.0 0.01 0.31 0.10 94 979.0
20260906131635 53 196 4.0 7.0 0.01 0.31 0.10 94 979.1
20260906131135 53 230 4.0 7.0 0.01 0.31 0.10 94 979.0
20260906130635 53 209 4.0 6.0 0.01 0.31 0.10 94 978.8
20260906130135 53 231 3.0 6.0 0.01 0.31 0.10 94 978.6
20260906125633 53 255 5.0 6.0 0.01 0.31 0.10 94 978.4
20260906125135 54 234 3.0 5.0 0.02 0.31 0.10 94 978.1
20260906124633 54 285 0.0 3.0 0.02 0.31 0.10 94 978.0
20260906124136 54 285 2.0 3.0 0.02 0.31 0.10 94 978.1
20260906123633 54 285 2.0 4.0 0.02 0.31 0.10 94 978.2
20260906123135 53 285 2.0 4.0 0.03 0.31 0.10 94 978.3
20260906122632 53 286 3.0 4.0 0.03 0.30 0.09 94 978.5
20260906122134 53 286 2.0 4.0 0.03 0.30 0.09 94 978.6
20260906121632 53 286 2.0 4.0 0.03 0.30 0.09 94 978.7
20260906121134 53 323 2.0 3.0 0.03 0.30 0.09 94 978.7
20260906120633 53 23 2.0 3.0 0.03 0.30 0.09 94 978.6
20260906120133 53 25 2.0 3.0 0.03 0.30 0.09 94 978.5
20260906115633 53 25 2.0 5.0 0.03 0.30 0.09 94 978.3
20260906115133 53 25 2.0 5.0 0.02 0.29 0.08 94 978.2
20260906114632 53 56 4.0 5.0 0.02 0.29 0.08 93 978.2
20260906114133 53 320 2.0 6.0 0.02 0.29 0.08 94 978.8
20260906113632 53 320 5.0 6.0 0.02 0.29 0.08 94 979.2
20260906113144 53 42 3.0 4.0 0.00 0.27 0.06 93 979.1
20260906113135 53 71 1.0 5.0 0.01 0.28 0.07 93 979.1
20260906112134 53 293 2.0 2.0 0.00 0.27 0.06 93 979.4
20260906111631 53 293 0.0 2.0 0.00 0.27 0.06 93 979.5
20260906111132 53 293 1.0 2.0 0.00 0.27 0.06 93 979.5
20260906110631 53 293 1.0 3.0 0.00 0.27 0.06 93 979.4
20260906110132 53 293 1.0 3.0 0.00 0.27 0.06 93 979.5
20260906105630 53 293 1.0 3.0 0.00 0.27 0.06 93 979.5
20260906105132 53 293 2.0 3.0 0.00 0.27 0.06 93 979.7
20260906104631 53 295 1.0 2.0 0.00 0.27 0.06 93 979.6
20260906104131 53 295 0.0 2.0 0.00 0.27 0.06 93 979.3
20260906103631 53 295 1.0 2.0 0.00 0.27 0.06 93 979.4
20260906103140 53 293 0.0 3.0 0.00 0.27 0.06 93 980.0
20260906103132 53 293 1.0 3.0 0.00 0.27 0.06 93 979.7
20260906102131 53 295 1.0 3.0 0.00 0.27 0.06 93 980.1
20260906101629 53 295 2.0 3.0 0.00 0.27 0.06 93 980.2
20260906101131 53 295 1.0 2.0 0.00 0.27 0.06 93 980.0
20260906100629 53 295 1.0 3.0 0.00 0.27 0.06 93 980.0
20260906100131 53 295 1.0 4.0 0.00 0.27 0.06 93 979.9
20260906095637 53 295 2.0 4.0 0.00 0.27 0.06 93 980.0
20260906095629 53 295 1.0 4.0 0.00 0.27 0.06 93 979.9
20260906094629 53 295 2.0 3.0 0.00 0.27 0.06 93 979.9
20260906094131 53 295 2.0 3.0 0.00 0.27 0.06 93 980.0
20260906093628 53 295 1.0 2.0 0.00 0.27 0.06 93 979.8
20260906093130 53 295 0.0 2.0 0.00 0.27 0.06 93 979.7
20260906092629 53 295 1.0 2.0 0.00 0.27 0.06 93 979.6
20260906092129 53 295 1.0 3.0 0.00 0.27 0.06 93 979.9
20260906091629 53 295 2.0 3.0 0.00 0.27 0.06 93 980.1
20260906091130 53 295 2.0 4.0 0.00 0.27 0.06 93 980.1
20260906090758 53 295 2.0 3.0 0.00 0.27 0.06 93 980.1
20260906090637 53 295 2.0 3.0 0.00 0.27 0.06 93 980.0
20260906090629 53 295 2.0 4.0 0.00 0.27 0.06 93 980.0
20260906085136 53 295 0.0 0.0 0.00 0.27 0.06 93 980.1
20260906085129 53 295 0.0 0.0 0.00 0.27 0.06 93 980.2
20260906084129 53 295 0.0 0.0 0.00 0.27 0.06 93 980.1
20260906083628 53 295 0.0 0.0 0.00 0.27 0.06 93 980.4
20260906083130 53 295 0.0 0.0 0.00 0.27 0.06 93 980.4
20260906082628 53 295 0.0 0.0 0.00 0.27 0.06 93 980.4
20260906082129 53 295 0.0 0.0 0.00 0.27 0.06 93 980.4
20260906081634 53 295 0.0 0.0 0.00 0.27 0.06 93 980.4
20260906081626 53 295 0.0 0.0 0.00 0.27 0.06 93 980.5
20260906080627 53 295 0.0 1.0 0.00 0.27 0.06 93 980.5
20260906080129 53 295 0.0 1.0 0.00 0.27 0.06 93 980.7
20260906075626 52 295 0.0 2.0 0.00 0.27 0.06 92 980.8
20260906075127 52 295 1.0 2.0 0.01 0.27 0.06 92 980.8
20260906074627 52 295 0.0 1.0 0.02 0.27 0.06 92 980.8
20260906074127 53 295 0.0 1.0 0.03 0.27 0.06 92 980.8
20260906073633 52 295 0.0 2.0 0.05 0.27 0.06 92 980.7
20260906073626 53 295 0.0 2.0 0.04 0.27 0.06 92 980.8
20260906073257 52 295 1.0 2.0 0.05 0.27 0.06 92 980.6
20260906072128 53 295 0.0 1.0 0.05 0.27 0.06 92 980.7
20260906071625 53 295 0.0 2.0 0.06 0.27 0.06 92 980.9
20260906071128 53 295 0.0 3.0 0.06 0.27 0.06 92 980.9
20260906070633 52 295 0.0 2.0 0.06 0.27 0.06 92 981.1
20260906070625 53 295 1.0 3.0 0.06 0.27 0.06 92 980.9
20260906065625 52 295 0.0 2.0 0.06 0.27 0.06 92 981.2
20260906065126 53 295 1.0 2.0 0.06 0.26 0.05 91 981.1
20260906064625 53 295 0.0 2.0 0.06 0.25 0.04 91 981.3
20260906064126 53 295 1.0 3.0 0.06 0.24 0.03 91 981.5
20260906063625 53 295 0.0 3.0 0.07 0.23 0.02 91 981.6
20260906063126 53 295 1.0 4.0 0.08 0.22 0.01 91 981.6
20260906062625 53 295 2.0 4.0 0.10 0.22 0.01 91 981.5
20260906062125 53 35 2.0 3.0 0.12 0.22 0.01 91 981.5
20260906061623 53 49 2.0 3.0 0.13 0.21 0.00 91 981.5
20260906061125 52 62 1.0 3.0 0.13 0.21 0.00 91 981.4
20260906060623 52 62 1.0 5.0 0.15 0.21 0.00 90 981.3
20260906060128 52 65 3.0 5.0 0.20 0.21 0.00 90 981.2
20260906055624 53 227 2.0 3.0 0.20 0.21 0.20 90 981.3
20260906055126 53 227 2.0 3.0 0.19 0.20 0.19 89 981.4
20260906054622 53 227 1.0 2.0 0.18 0.19 0.18 89 981.5
20260906054125 53 227 1.0 3.0 0.17 0.18 0.17 89 981.7
20260906053622 53 227 2.0 4.0 0.15 0.16 0.15 89 981.8
20260906053126 53 227 3.0 4.0 0.13 0.14 0.13 88 981.9
20260906052623 53 227 1.0 4.0 0.11 0.12 0.11 88 981.8
20260906052124 53 227 2.0 5.0 0.09 0.10 0.09 88 982.1
20260906051623 53 258 3.0 6.0 0.07 0.08 0.08 88 982.2
20260906051123 54 258 2.0 6.0 0.07 0.08 0.07 87 981.9
20260906050623 54 292 4.0 5.0 0.05 0.06 0.05 87 981.8
20260906050125 54 333 1.0 4.0 0.00 0.01 0.00 86 981.7
20260906045622 54 355 1.0 3.0 0.00 0.01 0.00 86 981.5
20260906045122 54 357 1.0 4.0 0.00 0.01 0.00 86 981.5
20260906044622 54 355 1.0 4.0 0.00 0.01 0.00 86 981.3
20260906044123 53 13 1.0 3.0 0.00 0.01 0.00 86 981.3
20260906043621 53 13 0.0 2.0 0.00 0.01 0.00 86 981.2
20260906043128 53 13 0.0 3.0 0.00 0.01 0.00 86 981.1
20260906042621 53 13 2.0 4.0 0.00 0.01 0.00 85 981.1
20260906042132 53 13 1.0 3.0 0.00 0.01 0.00 85 981.2
20260906042124 53 13 2.0 4.0 0.00 0.01 0.00 85 981.2
20260906041123 53 13 2.0 3.0 0.00 0.01 0.00 85 981.3
20260906040622 54 13 0.0 3.0 0.00 0.01 0.00 85 981.1
20260906040132 54 13 1.0 3.0 0.00 0.01 0.00 85 980.9
20260906040123 54 13 2.0 3.0 0.00 0.01 0.00 85 980.8
20260906035123 54 13 1.0 3.0 0.00 0.01 0.00 85 980.8
20260906034621 54 13 1.0 3.0 0.00 0.01 0.00 85 980.7
20260906034123 54 13 1.0 2.0 0.00 0.01 0.00 85 980.9
20260906033620 54 13 0.0 2.0 0.00 0.01 0.00 85 981.2
20260906033131 54 13 1.0 6.0 0.00 0.01 0.00 84 980.7
20260906033123 54 13 0.0 3.0 0.00 0.01 0.00 84 980.9
20260906032123 54 11 2.0 6.0 0.00 0.01 0.00 83 980.4
20260906031619 55 0 3.0 5.0 0.00 0.01 0.00 83 980.3
20260906031122 55 289 2.0 4.0 0.00 0.01 0.00 82 980.5
20260906030619 55 289 2.0 4.0 0.00 0.01 0.00 82 980.5
20260906030122 55 271 0.0 2.0 0.00 0.01 0.00 81 980.7
20260906025618 55 271 0.0 2.0 0.00 0.01 0.00 81 980.6
20260906025121 55 271 0.0 2.0 0.00 0.01 0.00 81 980.6
20260906024619 55 271 0.0 2.0 0.00 0.01 0.00 80 980.7
20260906024120 56 269 0.0 0.0 0.00 0.01 0.00 80 980.7
20260906023618 56 269 0.0 3.0 0.00 0.01 0.00 79 980.6
20260906023122 56 269 0.0 3.0 0.00 0.01 0.00 79 980.5
20260906022618 56 321 0.0 0.0 0.00 0.01 0.00 78 980.3
20260906022121 56 321 0.0 0.0 0.00 0.01 0.00 78 980.1
20260906021617 56 321 0.0 0.0 0.00 0.01 0.00 78 980.0
20260906021123 57 321 0.0 0.0 0.00 0.01 0.00 78 979.9
20260906020625 57 321 0.0 3.0 0.00 0.01 0.00 77 980.1
20260906020617 57 321 0.0 1.0 0.00 0.01 0.00 77 980.1
20260906015623 57 320 0.0 1.0 0.00 0.01 0.00 76 980.3
20260906015617 57 321 0.0 3.0 0.00 0.01 0.00 77 980.1
20260906014617 58 319 0.0 3.0 0.00 0.01 0.00 76 980.1
20260906014121 58 319 0.0 3.0 0.00 0.01 0.00 76 980.1
20260906013616 58 330 0.0 10.0 0.00 0.01 0.00 76 980.1
20260906013121 58 321 0.0 11.0 0.00 0.01 0.00 76 980.1
20260906012622 58 319 4.0 11.0 0.00 0.01 0.00 76 980.1
20260906012616 58 305 5.0 11.0 0.00 0.01 0.00 76 980.1
20260906011624 58 353 3.0 10.0 0.00 0.01 0.00 75 979.8
20260906011616 58 329 6.0 11.0 0.00 0.01 0.00 75 980.0
20260906010616 59 319 2.0 10.0 0.00 0.01 0.00 75 979.9
20260906010129 59 350 4.0 11.0 0.00 0.01 0.00 75 979.8
20260906010120 59 347 4.0 10.0 0.00 0.01 0.00 75 979.8
20260906005121 59 307 0.0 11.0 0.00 0.01 0.00 75 979.9
20260906004617 59 329 5.0 11.0 0.00 0.01 0.00 75 979.9
20260906004120 59 319 2.0 11.0 0.00 0.01 0.00 75 979.8
20260906003616 60 312 3.0 11.0 0.00 0.01 0.00 73 979.8
20260906003129 60 305 3.0 10.0 0.00 0.01 0.00 72 979.8
20260906003120 60 310 4.0 11.0 0.00 0.01 0.00 73 979.7
20260906002120 61 331 0.0 10.0 0.00 0.01 0.00 72 979.9
20260906001617 61 264 2.0 9.0 0.00 0.01 0.00 72 979.8
20260906001115 61 282 3.0 9.0 0.00 0.01 0.00 72 979.9
20260906000614 61 344 0.0 9.0 0.00 0.01 0.00 72 979.8
20260906000122 62 323 4.0 13.0 0.00 0.01 0.00 71 979.8
20260906000115 62 296 1.0 12.0 0.00 0.01 0.00 72 979.8
20260905235740 62 266 2.0 13.0 0.00 0.01 0.00 71 979.8
20260905234614 62 285 2.0 11.0 0.00 0.01 0.00 70 979.7
20260905234117 62 274 4.0 11.0 0.00 0.01 0.00 69 979.8
20260905233616 63 302 1.0 11.0 0.00 0.01 0.00 69 979.8
20260905233115 63 302 2.0 11.0 0.00 0.01 0.00 70 979.7
20260905232613 63 295 2.0 11.0 0.00 0.01 0.00 70 979.7
20260905232114 63 261 4.0 11.0 0.00 0.01 0.00 70 979.7
20260905231620 62 298 2.0 10.0 0.00 0.01 0.00 71 979.8
20260905231612 63 290 2.0 10.0 0.00 0.01 0.00 70 979.8
20260905230613 62 310 2.0 10.0 0.00 0.01 0.00 72 979.8
20260905230115 62 303 3.0 10.0 0.00 0.01 0.00 72 979.8
20260905225613 62 285 4.0 12.0 0.00 0.01 0.00 71 979.7
20260905225113 63 288 5.0 12.0 0.00 0.01 0.00 70 980.0
20260905224622 64 282 4.0 11.0 0.00 0.01 0.00 69 980.0
20260905224614 63 298 2.0 11.0 0.00 0.01 0.00 69 980.0
20260905223620 63 261 4.0 10.0 0.00 0.01 0.00 70 979.9
20260905223612 63 300 7.0 10.0 0.00 0.01 0.00 70 979.9
20260905222612 63 333 4.0 7.0 0.00 0.01 0.00 69 979.9
20260905222114 63 286 3.0 5.0 0.00 0.01 0.00 69 979.9
20260905221612 63 265 1.0 7.0 0.00 0.01 0.00 70 979.9
20260905221113 62 265 4.0 7.0 0.00 0.01 0.00 71 980.0
20260905220611 62 272 3.0 6.0 0.00 0.01 0.00 73 980.0
20260905220113 61 292 2.0 6.0 0.00 0.01 0.00 73 980.1
20260905215611 61 310 4.0 6.0 0.00 0.01 0.00 73 980.1
20260905215112 61 269 4.0 9.0 0.00 0.01 0.00 73 980.2
20260905214611 61 310 4.0 9.0 0.00 0.01 0.00 73 980.1
20260905214119 61 358 3.0 7.0 0.00 0.01 0.00 73 980.0
20260905214112 61 300 4.0 6.0 0.00 0.01 0.00 72 980.2
20260905213120 61 247 2.0 5.0 0.00 0.01 0.00 75 980.1
20260905213113 61 204 1.0 7.0 0.00 0.01 0.00 75 980.1
20260905212741 60 278 2.0 4.0 0.00 0.01 0.00 76 980.1
20260905212735 60 245 3.0 5.0 0.00 0.01 0.00 76 980.0
20260905211111 60 278 3.0 6.0 0.00 0.01 0.00 76 980.2
20260905210611 60 278 2.0 6.0 0.00 0.01 0.00 75 980.2
20260905210112 60 314 2.0 5.0 0.00 0.01 0.00 77 980.2
20260905205611 60 316 3.0 6.0 0.00 0.01 0.00 77 980.1
20260905205111 60 345 3.0 6.0 0.00 0.01 0.00 77 980.1
20260905204611 60 0 1.0 3.0 0.00 0.01 0.00 78 980.2
20260905204111 60 0 2.0 4.0 0.00 0.01 0.00 79 980.1
20260905203610 60 0 2.0 5.0 0.00 0.01 0.00 79 980.2
20260905202608 59 3 2.0 6.0 0.00 0.01 0.00 80 980.1
20260905202111 59 306 2.0 6.0 0.00 0.01 0.00 81 980.1
20260905201610 59 266 4.0 7.0 0.00 0.01 0.00 83 980.2
20260905201110 58 303 3.0 9.0 0.00 0.01 0.00 83 980.2
20260905200610 58 292 5.0 9.0 0.00 0.01 0.00 84 980.0
20260905200110 57 314 2.0 7.0 0.00 0.01 0.00 84 980.0
20260905195614 57 329 3.0 5.0 0.00 0.01 0.00 86 980.0
20260905195607 57 296 4.0 7.0 0.00 0.01 0.00 85 980.0
20260905194608 56 319 4.0 5.0 0.00 0.01 0.00 87 980.0
20260905194109 56 330 4.0 5.0 0.00 0.01 0.00 87 980.1
20260905193614 55 0 4.0 7.0 0.00 0.01 0.00 87 980.0
20260905193608 56 323 3.0 5.0 0.00 0.01 0.00 87 980.0
20260905192607 55 327 2.0 7.0 0.00 0.01 0.00 88 980.0
20260905192108 55 327 4.0 7.0 0.00 0.01 0.00 88 979.9
20260905191607 55 0 3.0 6.0 0.00 0.01 0.00 88 979.9
20260905191108 55 353 3.0 6.0 0.00 0.01 0.00 89 979.9
20260905190608 55 319 4.0 6.0 0.00 0.01 0.00 89 980.1
20260905190109 55 8 4.0 6.0 0.00 0.01 0.00 89 980.2
20260905185607 55 4 4.0 6.0 0.00 0.01 0.00 89 980.3
20260905185108 54 4 2.0 4.0 0.00 0.01 0.00 90 980.4
20260905184606 54 11 2.0 4.0 0.00 0.01 0.00 90 980.3
20260905184106 54 23 2.0 4.0 0.00 0.01 0.00 90 980.5
20260905183606 54 21 1.0 4.0 0.00 0.01 0.00 90 980.7
20260905183107 54 21 1.0 5.0 0.00 0.01 0.00 91 980.6
20260905182606 54 21 2.0 7.0 0.00 0.01 0.00 91 980.5
20260905182107 54 0 4.0 7.0 0.00 0.01 0.00 91 980.2
20260905181606 54 13 4.0 7.0 0.00 0.01 0.00 91 980.1
20260905181107 53 0 3.0 6.0 0.00 0.01 0.00 91 980.1
20260905180612 53 347 2.0 6.0 0.00 0.01 0.00 91 980.4
20260905180606 53 0 4.0 6.0 0.00 0.01 0.00 91 980.3
20260905175613 53 348 3.0 5.0 0.01 0.01 0.00 91 980.3
20260905175606 53 3 3.0 5.0 0.00 0.01 0.00 92 980.4
20260905174604 53 331 3.0 6.0 0.01 0.01 0.00 91 980.4
20260905174114 53 329 3.0 5.0 0.01 0.01 0.00 91 980.4
20260905174107 53 329 3.0 6.0 0.01 0.01 0.00 91 980.4
20260905173107 53 353 3.0 6.0 0.01 0.01 0.00 91 980.4
20260905172612 53 347 2.0 5.0 0.01 0.01 0.00 91 980.5
20260905172605 53 0 4.0 6.0 0.01 0.01 0.00 91 980.4
20260905171604 53 0 3.0 5.0 0.01 0.01 0.00 91 980.2
20260905171106 53 345 2.0 5.0 0.01 0.01 0.00 91 980.2
20260905170603 53 340 2.0 6.0 0.01 0.01 0.00 91 980.1
20260905170104 53 313 4.0 7.0 0.01 0.01 0.00 91 980.2
20260905165612 53 313 6.0 7.0 0.00 0.00 0.00 91 980.1
20260905165605 53 300 5.0 7.0 0.01 0.01 0.00 91 980.2
20260905164603 53 317 5.0 7.0 0.00 0.00 0.00 91 980.2
20260905164105 53 351 3.0 6.0 0.00 0.00 0.00 91 980.0
20260905163603 53 355 3.0 5.0 0.00 0.00 0.00 91 979.8
20260905163104 53 355 3.0 4.0 0.00 0.00 0.00 91 979.9
20260905162602 53 354 2.0 5.0 0.00 0.00 0.00 91 979.9
20260905162104 53 353 2.0 5.0 0.00 0.00 0.00 91 979.9
20260905161603 53 351 3.0 4.0 0.00 0.00 0.00 90 980.0
20260905161106 53 0 2.0 4.0 0.00 0.00 0.00 91 980.0
20260905160602 53 0 2.0 4.0 0.00 0.00 0.00 90 979.9
20260905160107 53 0 1.0 4.0 0.00 0.00 0.00 90 979.9
20260905155602 53 0 2.0 6.0 0.00 0.00 0.00 90 980.0
20260905155103 53 7 2.0 6.0 0.00 0.00 0.00 90 979.9
20260905154601 53 6 5.0 6.0 0.00 0.00 0.00 90 979.8
20260905154103 53 6 2.0 6.0 0.00 0.00 0.00 90 979.6
20260905153602 53 4 2.0 6.0 0.00 0.00 0.00 90 979.3
20260905153103 53 4 2.0 5.0 0.00 0.00 0.00 90 979.4
20260905152601 53 3 3.0 5.0 0.00 0.00 0.00 89 979.4
20260905152110 53 0 5.0 9.0 0.00 0.00 0.00 89 979.3
20260905152103 53 0 2.0 9.0 0.00 0.00 0.00 89 979.3
20260905151104 54 7 5.0 7.0 0.00 0.00 0.00 89 979.2
20260905150601 54 30 3.0 4.0 0.00 0.00 0.00 89 979.3
20260905145600 54 48 3.0 5.0 0.00 0.00 0.00 88 979.4
20260905145102 54 24 2.0 4.0 0.00 0.00 0.00 88 979.5
20260905144608 54 23 2.0 4.0 0.00 0.00 0.00 89 979.7
20260905144601 54 24 1.0 4.0 0.00 0.00 0.00 88 979.5
20260905143600 54 23 1.0 4.0 0.00 0.00 0.00 89 979.5